[[{"header":{"parameterUnit":"m.s-1","parameterCategory":1,"la1":30.2992,"la2":30.254,"lo1":-89.0895,"lo2":-89.0443,"dy":0.0025,"dx":0.0025,"nx":19,"ny":19,"refTime":"2026-04-14T21:00:00:Z","depth":0,"parameterNumber":2,"parameterNumberName":"U-component_of_WINDS"},"data":[0,0,0,-3.5462,-3.5465,-3.5612,-3.5613,-3.5804,-3.5806,0,0,0,0,0,0,0,0,0,0,0,-3.5421,-3.5423,-3.5462,-3.5466,-3.5612,-3.5613,-3.5804,-3.5806,0,0,0,0,0,0,0,0,0,0,0,-3.5421,-3.5422,-3.5424,-3.5466,-3.5612,-3.5613,-3.5804,-3.5692,0,0,0,0,0,0,0,0,0,0,-3.5548,-3.5513,-3.5422,-3.5424,-3.5467,-3.5612,-3.5613,-3.5686,-3.5699,-3.574,0,-3.5777,0,-3.5795,-3.5819,-3.582,0,0,0,-3.5464,-3.5503,-3.554,-3.5424,-3.5469,-3.5612,-3.5546,-3.5693,-3.5707,-3.5756,-3.578,-3.5787,-3.5798,-3.582,-3.5821,-3.6065,-3.6066,0,0,-3.5456,-3.5449,-3.553,-3.5549,-3.5527,-3.5541,-3.555,-3.5701,-3.5726,-3.578,-3.5791,-3.5801,-3.5822,-3.5823,-3.6064,-3.6065,0,0,0,-3.5434,-3.5443,-3.5477,-3.5541,-3.5568,-3.5545,-3.5556,-3.572,-3.5731,-3.5793,-3.5803,-3.5823,-3.5825,-3.6063,-3.6064,-3.6117,0,0,0,-3.5429,-3.543,-3.5473,-3.5471,-3.5565,-3.5645,-3.5571,-3.5721,-3.5738,-3.5802,-3.5823,-3.5827,-3.6061,-3.6064,-3.6113,-3.6143,0,0,0,-3.5411,-3.5428,-3.545,-3.547,-3.5533,-3.5643,-3.5663,-3.5725,-3.5745,-3.582,-3.5828,-3.606,-3.6063,-3.6109,-3.6137,-3.6204,0,0,0,-3.539,-3.5495,-3.5451,-3.5574,-3.5532,-3.5675,-3.5662,-3.577,-3.5841,-3.5824,-3.6061,-3.6064,-3.6108,-3.6133,-3.62,-3.6259,-3.6283,0,0,-3.5519,-3.5511,-3.5584,-3.5548,-3.5698,-3.5653,-3.5811,-3.5883,-3.5897,-3.6008,-3.6014,-3.6114,-3.6136,-3.6203,-3.6424,-3.6443,0,0,0,-3.5622,-3.5674,-3.5715,-3.5783,-3.5841,-3.5893,-3.5941,-3.5968,-3.6063,-3.5953,-3.6158,-3.6171,-3.6211,-3.6239,-3.6256,-3.629,-3.6078,-3.6077,-3.6077,-3.5794,-3.5807,-3.5927,-3.5958,-3.6024,-3.6073,-3.6128,-3.6172,-3.6165,-3.6214,-3.6246,-3.6378,-3.6411,-3.6424,-3.6459,-3.628,-3.628,-3.628,-3.628,-3.5984,-3.6059,-3.6048,-3.6161,-3.6174,-3.6269,-3.6322,-3.6314,-3.6404,-3.6355,-3.639,-3.6334,-3.6444,-3.6476,-3.6284,-3.6284,-3.6283,-3.6283,-3.6283,-3.6097,-3.6134,-3.6166,-3.6265,-3.6341,-3.6368,-3.6456,-3.6465,-3.6473,-3.6509,-3.6544,-3.6543,-3.6542,-3.6525,-3.6526,-3.6526,-3.6527,-3.6527,-3.6527,-3.62,-3.6234,-3.6306,-3.6377,-3.6422,-3.6482,-3.6535,-3.6579,-3.663,-3.663,-3.663,-3.6618,-3.6454,-3.6411,-3.6534,-3.6533,-3.6532,-3.6531,-3.6531,-3.6385,-3.6345,-3.6456,-3.6501,-3.6586,-3.666,-3.6671,-3.6761,-3.6799,-3.6842,-3.6824,-3.6701,-3.6692,-3.668,-3.6644,-3.6821,-3.6821,-3.6821,-3.6821,-3.6479,-3.6476,-3.6592,-3.6663,-3.6734,-3.6756,-3.6882,-3.6924,-3.6961,-3.6986,-3.6962,-3.6917,-3.6904,-3.6903,-3.6886,-3.6853,-3.7078,-3.7079,-3.7079,-3.6592,-3.6597,-3.6702,-3.6738,-3.6805,-3.6862,-3.6981,-3.7064,-3.7098,-3.7089,-3.7005,-3.6994,-3.6921,-3.6897,-3.6884,-3.6856,-3.6796,0,0]},{"header":{"parameterUnit":"m.s-1","parameterCategory":1,"la1":30.2992,"la2":30.254,"lo1":-89.0895,"lo2":-89.0443,"dy":0.0025,"dx":0.0025,"nx":19,"ny":19,"refTime":"2026-04-14T21:00:00:Z","depth":0,"parameterNumber":3,"parameterNumberName":"V-component_of_WINDS"},"data":[0,0,0,3.4036,3.4036,3.4047,3.4047,3.4072,3.4072,0,0,0,0,0,0,0,0,0,0,0,3.4039,3.4039,3.4036,3.4036,3.4047,3.4047,3.4072,3.4072,0,0,0,0,0,0,0,0,0,0,0,3.4039,3.4039,3.404,3.4036,3.4047,3.4047,3.4072,3.406,0,0,0,0,0,0,0,0,0,0,3.4047,3.4056,3.4039,3.404,3.4037,3.4047,3.4047,3.4059,3.4061,3.4072,0,3.4083,0,3.4078,3.4075,3.4075,0,0,0,3.4032,3.4055,3.4052,3.404,3.4037,3.4047,3.4041,3.406,3.4062,3.4074,3.4083,3.4084,3.4078,3.4075,3.4075,3.4153,3.4153,0,0,3.4031,3.4044,3.4051,3.4054,3.4052,3.4041,3.4041,3.4061,3.4072,3.4083,3.4084,3.4079,3.4075,3.4075,3.4152,3.4153,0,0,0,3.4032,3.4044,3.4041,3.4053,3.4054,3.4041,3.4042,3.4071,3.4069,3.4084,3.4079,3.4075,3.4076,3.4151,3.4152,3.4192,0,0,0,3.4032,3.4045,3.4041,3.4049,3.4054,3.4063,3.4052,3.4067,3.4069,3.4079,3.4075,3.4076,3.4151,3.4152,3.419,3.4208,0,0,0,3.4036,3.4045,3.4049,3.4049,3.4054,3.4062,3.4061,3.4067,3.4066,3.4075,3.4076,3.415,3.4152,3.4187,3.4205,3.4231,0,0,0,3.4044,3.4085,3.405,3.4093,3.4055,3.4087,3.406,3.4084,3.4096,3.4076,3.4151,3.4152,3.4187,3.4202,3.4229,3.4255,3.4267,0,0,3.4102,3.4092,3.4117,3.4086,3.4128,3.4084,3.4132,3.4131,3.4121,3.4143,3.4144,3.419,3.4204,3.4231,3.4336,3.4346,0,0,0,3.4139,3.4157,3.4165,3.4177,3.4178,3.418,3.417,3.417,3.4188,3.4135,3.4208,3.4216,3.4231,3.4242,3.4251,3.4262,3.4159,3.4159,3.4158,3.4239,3.4223,3.4263,3.4248,3.4261,3.4251,3.4259,3.4257,3.4238,3.4256,3.4261,3.4327,3.4341,3.4347,3.436,3.4275,3.4276,3.4276,3.4276,3.4321,3.4343,3.4317,3.4346,3.4329,3.4353,3.4346,3.4332,3.4351,3.4321,3.4334,3.43,3.4359,3.4368,3.4279,3.4278,3.4278,3.4278,3.4277,3.4383,3.4391,3.439,3.4406,3.442,3.4405,3.4426,3.441,3.4396,3.4409,3.4412,3.4411,3.4407,3.4412,3.4412,3.4412,3.4412,3.4413,3.4413,3.4446,3.4445,3.4463,3.4468,3.4474,3.4479,3.4471,3.4476,3.4478,3.4465,3.4465,3.4444,3.4368,3.4348,3.4416,3.4415,3.4415,3.4415,3.4415,3.4532,3.4511,3.4539,3.4545,3.4549,3.4564,3.4545,3.4558,3.456,3.457,3.4547,3.4494,3.4482,3.4476,3.4459,3.4551,3.4551,3.4551,3.4551,3.4583,3.4576,3.4602,3.4612,3.4621,3.4607,3.4639,3.4634,3.4625,3.4625,3.461,3.4588,3.4581,3.4573,3.4564,3.4548,3.4661,3.4661,3.4661,3.4634,3.4627,3.4658,3.4648,3.4651,3.4653,3.4684,3.4697,3.4682,3.4665,3.4625,3.462,3.4584,3.4573,3.4553,3.4539,3.451,0,0]}]]